Location: *
(51.2167°N, 10.0667°E)
Time: 18:03:19
(UTC+00:00)

Cosmos 1943 Rocket - Pass Details

Date: 12 December 2019
Orbit: 812 x 843 km, 71.0° (Epoch: 27 January)

Event Time Altitude Azimuth Distance (km) Brightness Sun altitude
Rises 19:00:27 0° 323° (NW) 3,405 5.9 -34.4°
Reaches altitude 10° 19:03:11 10° 313° (NW) 2,462 5.2 -34.8°
Maximum altitude 19:07:56 29° 256° (WSW) 1,504 3.9 -35.6°
Enters shadow 19:09:36 24° 227° (SW) 1,649 4.0 -35.8°
